{"data":{"norad_id":59189,"epoch":"2026-05-25T00:46:29.604576Z","epoch_age_seconds":65462,"freshness":"FRESH","line1":"1 59189U 24045M   26145.03228709 -.00000071  00000+0  69531-5 0  9993","line2":"2 59189  43.0033  21.6883 0001045 271.2972  88.7760 15.27584205124838","mean_motion":15.27584205,"eccentricity":0.0001045,"inclination_deg":43.0033,"raan_deg":21.6883,"arg_perigee_deg":271.2972,"mean_anomaly_deg":88.776,"bstar":6.9531e-6,"rev_number":12483,"period_min":94.266489224403,"perigee_km":482.31951215455,"apogee_km":483.75349741704,"semimajor_km":6861.1735047858,"source":"CELESTRAK","updated_at":"2026-05-25T13:38:18.860951Z"}}